Regional Weather Roundup
Issued by NWS Kansas City/Pleasant Hill, MO

Home | Current Version | Previous Version | Text Only | Print | Product List | Glossary On
Versions: 1 2 3 4 5 6 7 8 9 10 11 12 13 14 15 16 17 18 19 20 21 22 23 24 25 26 27 28 29 30 31 32 33 34 35 36 37 38 39 40 41 42 43 44 45 46 47 48 49 50
000
ASUS43 KEAX 180710
RWREAX

WEATHER ROUNDUP FOR EASTERN KANSAS AND NORTHWEST MISSOURI
NATIONAL WEATHER SERVICE KANSAS CITY/PLEASANT HILL MO
200 AM CDT FRI AUG 18 2017

KSZ040-057-103>105-MOZ028-029-037-043-180800-
...KANSAS CITY METROPOLITAN AREA...

CITY           SKY/WX    TMP DP  RH WIND       PRES   REMARKS
K.C. INTL      CLOUDY    65  62  90 SW8       29.96S
K.C. DOWNTOWN  CLOUDY    71  65  81 CALM      29.95S
LEES SUMMIT    CLOUDY    68  64  87 SW5       29.97S
OLATHE - IXD   PTCLDY    68  61  78 SW8       29.98S
OLATHE - OJC   CLEAR     66  62  87 SW3       29.97S
LAWRENCE       PTCLDY    62  62 100 CALM      29.96S

$$

MOZ001>008-011>017-020>025-030>033-038>040-044>046-053-054-180800-
...NORTHERN AND CENTRAL MISSOURI...

CITY           SKY/WX    TMP DP  RH WIND       PRES   REMARKS
ST. JOSEPH     CLOUDY    59  59 100 CALM      29.95S FOG
MOSBY            N/A     63  61  94 CALM      29.96S
WARRENSBURG    CLOUDY    63  61  94 CALM      29.96S
WHITEMAN AFB   PTCLDY    64  64 100 SW5       29.95F
CLINTON        PTCLDY    64  63  94 SW5       29.97S
SEDALIA        CLOUDY    66  65  96 SW6       29.97S
WARSAW         NOT AVBL
CHILLICOTHE      N/A     61  61 100 CALM      29.95S
KIRKSVILLE     CLEAR     63  60  90 W7        29.93S

$$

MOZ041-047>049-056>058-063>065-088>090-097-180800-
...EASTERN AND SOUTHERN MISSOURI...

CITY           SKY/WX    TMP DP  RH WIND       PRES   REMARKS
ST. LOUIS INTL PTCLDY    71  64  78 W8        29.91S
SPIRIT OF STL  PTCLDY    67  65  93 W7        29.90S
COLUMBIA       CLOUDY    66  62  87 W7        29.94F
JEFFERSON CITY CLOUDY    66  65  96 CALM      29.94F
ROLLA          CLEAR     64  63  96 SW8       29.97F
OSAGE BEACH    CLEAR     63  62  97 CALM      29.97F
SPRINGFIELD    CLEAR     62  61  96 CALM      29.99F
BRANSON        PTCLDY    68  66  94 CALM      30.03R
JOPLIN         CLEAR     64  64 100 S5        30.00S
WEST PLAINS    CLEAR     64  62  93 W5        30.01S

$$

IAZ060-094-KSZ022-034>040-054-083-096-NEZ052-066-093-180800-
...KANSAS...SOUTHEAST NEBRASKA AND IOWA...

CITY           SKY/WX    TMP DP  RH WIND       PRES   REMARKS
TOPEKA         PTCLDY    64  62  93 CALM      29.96S
MANHATTAN      PTCLDY    65  63  93 CALM      29.96F
EMPORIA        PTCLDY    67  60  78 S8        29.98F
CHANUTE        PTCLDY    67  62  84 S6        29.99S
WICHITA        CLOUDY    68  63  84 SW8       30.00S
OMAHA          PTCLDY    68  61  78 SE7       29.92F
LINCOLN        CLOUDY    64  62  93 S5        29.93F
FALLS CITY     CLOUDY    61  60  97 CALM      29.95S
LAMONI         CLOUDY    64  60  87 W6        29.95R
DES MOINES     CLEAR     65  61  87 CALM      29.91S

$$




USA.gov is the U.S. government's official web portal to all federal, state and local government web resources and services.